(487573) = 2014 WZ391

Discovered at Kitt Peak on 2008-04-24 by Spacewatch.

Orbit

Orbit type: Jupiter Trojan

Note: WebGL enabled browser required.

epoch2023-09-13.0
epoch JD2460200.5
perihelion date2017-03-31.79225
perihelion JD2457844.29225
argument of perihelion (°)51.10874
ascending node (°)76.24895
inclination (°)22.04179
eccentricity0.0507963
perihelion distance (AU)4.9645008
Tisserand w.r.t. Jupiter2.9
ΔV w.r.t. Earth (km/sec)14.1
semimajor axis (AU)5.2301743
mean anomaly (°)194.15259
mean daily motion (°/day)0.08240050
aphelion distance (AU)5.496
period (years)11.96
P-vector [x]-0.55153106
P-vector [y]0.60067619
P-vector [z]0.57879323
Q-vector [x]-0.75028933
Q-vector [y]-0.66044979
Q-vector [z]-0.02952938
absolute magnitude13.9
phase slope0.15
uncertainty0
referenceMPEC 2023-Q78
observations used149
oppositions10
arc length (days)7154
first opposition used2004
last opposition used2023
residual rms (arc-secs)0.82
perturbers coarse indicatorM-v
perturbers precise indicator003Ek
first observation date used2004-01-18.0
last observation date used2023-08-20.0
computer nameMPCLINUX
JD of orbit computation2457794.470866
perihelion JD uncertainty (days)9.5113E-04
argument of perihelion uncertainty (°)8.5338E-05
ascending node uncertainty (°)9.1824E-06
inclination uncertainty (°)5.8501E-06
eccentricity uncertainty 4.8284E-08
perihelion distance uncertainty (AU)2.9799E-07
Minimum Orbit Intersection Distances (in AU)
for orbit epoch: 2460200.5, reference: E2023-Q78
Mercury4.63761
Venus4.26828
Earth4.01767
Mars3.39826
Jupiter0.01013
Saturn3.99879
Uranus13.7065
Neptune24.7602

Observations

151 total observations over interval: 2004 01 18.09996 – 2023 08 20.399263
These data are available for download (format description).

